Location: Mercogliano
(40.9167°N, 14.7333°E)
Time: 13:59:53
(UTC+00:00)

NOSS 3-2 (A) - Pass Details

Date: 18 September 2020
Orbit: 795 x 1413 km, 63.4° (Epoch: 28 October)

Event Time Altitude Azimuth Distance (km) Brightness Sun altitude
Rises 20:02:46 0° 321° (NW) 4,052 7.8 -32.4°
Reaches altitude 10° 20:05:25 10° 318° (NW) 3,168 7.0 -32.8°
Maximum altitude 20:12:59 57° 242° (WSW) 1,526 4.4 -33.9°
Enters shadow 20:13:58 54° 216° (SW) 1,583 4.4 -34.1°
